TIME,DELAY(SENSOR),PRES,OXYGEN,RAWTEMP,T(OPTODE),TCPHASE,FLUOR,BETA(BETA700),BETA(BETA412),BETA(BETA440),CDOM,C(CSC),ED(ED412.20),ED(ED444.00),ED(ED489.60),ED(ED554.30),LU(LU412.10),LU(LU443.90),LU(LU489.70),LU(LU554.70),COMP,TILTX,TILTY,CHECK
1368073298,5810,858.5100097656250000,31.2026805877685550,559.0814819335938000,4.5143570899963380,56.8916702270507800,55,99,100,79,81,15547,0,0,0,0,2147121920,2147771181,2147574418,2147566125,1069,2,13,44018
1368076894,5808,910.0000000000000000,33.3702011108398440,563.6799926757812000,4.3717899322509770,56.5801086425781250,55,99,100,78,81,15544,0,0,0,0,2147122560,2147770258,2147570477,2147568822,318,3,13,627
1368080494,5810,909.7899780273438000,34.8649406433105500,565.9714965820312000,4.3006801605224610,56.3632888793945300,55,100,98,78,81,15544,0,0,0,0,2147121810,2147769161,2147571401,2147566445,3060,3,13,25885
1368084094,5810,938.0599975585938000,36.1450805664062500,568.1286010742188000,4.2336997985839840,56.1805191040039060,55,97,100,78,82,15543,0,0,0,0,2147120786,2147770121,2147571446,2147566409,3336,3,13,17511
1368087694,5810,943.3599853515625000,37.1814804077148440,568.3897094726562000,4.2255902290344240,56.0283813476562500,55,98,99,77,82,15546,0,0,0,0,2147121654,2147763401,2147572260,2147568100,506,2,13,13403
1368091294,5809,938.3499755859375000,38.2098312377929700,569.1005859375000000,4.2035050392150880,55.8797683715820300,55,99,100,78,81,15545,0,0,0,0,2147121206,2147769234,2147572123,2147568466,167,2,13,26039
1368094894,5810,970.8200073242188000,39.1993789672851560,570.9896850585938000,4.1448020935058590,55.7495193481445300,55,99,100,78,80,15547,0,0,0,0,2147120155,2147771931,2147572818,2147566198,689,2,13,64149
1368098494,5811,976.2000122070312000,37.7091293334960940,570.6135253906250000,4.1564941406250000,55.9693489074707000,55,97,101,78,82,15544,0,0,0,0,2147118034,2147771181,2147570404,2147565302,68,2,13,27798
1368102094,5808,980.7999877929688000,38.3404197692871100,570.2692871093750000,4.1671919822692870,55.8712615966796900,55,98,100,78,80,15543,0,0,0,0,2147120941,2147766619,2147573376,2147569005,237,2,13,3589
1368105694,5812,984.1300048828125000,37.1031608581543000,570.8502197265625000,4.1491370201110840,56.0608100891113300,55,98,101,77,82,15539,0,0,0,0,2147120676,2147771218,2147574701,2147565549,68,3,13,18545
1368109294,5812,981.4899902343750000,39.1520118713378900,570.6381225585938000,4.1557288169860840,55.7451515197753900,54,97,100,78,81,15525,0,0,0,0,2147120685,2147771163,2147571977,2147565641,3562,3,13,34551
1368112894,5811,987.9899902343750000,39.7260398864746100,570.4699096679688000,4.1609568595886230,55.6622810363769500,56,100,101,76,81,15540,0,0,0,0,2147122240,2147775497,2147571346,2147569453,3375,2,13,6134
1368116494,5810,984.5200195312500000,37.6522903442382800,570.3522949218750000,4.1646118164062500,55.9738197326660160,54,98,100,78,81,15541,0,0,0,0,2147119744,2147771730,2147568109,2147568274,248,3,13,26922
1368120094,5810,987.9500122070312000,33.5019989013671900,570.3886718750000000,4.1634831428527830,56.6199607849121100,55,98,100,77,81,15544,0,0,0,0,2147121526,2147767314,2147571520,2147565568,148,2,13,19485
1368123694,5812,990.3499755859375000,39.1826095581054700,570.3494873046875000,4.1647000312805180,55.7404403686523440,56,97,101,78,81,15535,0,0,0,0,2147121993,2147767762,2147574921,2147564626,181,2,13,15995
1368127294,5812,987.1400146484375000,36.0738792419433600,570.4641113281250000,4.1611390113830570,56.2210083007812500,55,96,100,79,81,15540,0,0,0,0,2147124946,2147767222,2147569691,2147566537,2696,2,13,31652
1368130894,5808,986.5800170898438000,37.3592796325683600,570.3571166992188000,4.1644630432128910,56.0160789489746100,55,98,100,78,81,15539,0,0,0,0,2147122048,2147765266,2147570249,2147565641,114,2,13,64668
1368134494,5809,981.3499755859375000,38.2574386596679700,570.7307739257812000,4.1528468132019040,55.8832702636718750,54,97,99,77,81,15539,0,0,0,0,2147122349,2147769170,2147572946,2147568082,332,3,13,37676
1368138094,5808,980.5399780273438000,35.4367103576660160,571.7130737304688000,4.1223139762878420,56.3256187438964840,53,98,100,79,81,15540,0,0,0,0,2147124397,2147769142,2147575323,2147564973,218,2,13,4787
1368141694,5810,984.8699951171875000,39.0130615234375000,571.5264282226562000,4.1281189918518070,55.7770004272460940,54,97,99,85,81,15540,0,0,0,0,2147122523,2147767414,2147574189,2147565312,3430,2,13,27914
1368145294,5809,989.0599975585938000,39.2419700622558600,571.4456176757812000,4.1306300163269040,55.7425193786621100,55,98,100,77,81,15537,0,0,0,0,2147123584,2147769590,2147569517,2147568118,36,2,13,31537
1368148894,5810,984.4600219726562000,39.3798217773437500,571.5330200195312000,4.1279129981994630,55.7272605895996100,54,98,99,79,81,15540,0,0,0,0,2147118829,2147772571,2147572333,2147566930,161,3,13,62849
1368152494,5812,985.6900024414062000,36.7982902526855500,571.7697753906250000,4.1205501556396480,56.1237716674804700,56,98,99,79,81,15535,0,0,0,0,2147122870,2147770706,2147571392,2147565650,78,2,13,12404
1368156094,5810,982.4299926757812000,37.0255088806152340,571.8522949218750000,4.1179847717285160,56.0822601318359400,55,100,99,78,82,15532,0,0,0,0,2147121554,2147764123,2147573449,2147566208,3553,2,13,5533
1368159694,5810,981.6300048828125000,38.5238800048828100,571.9929199218750000,4.1136150360107420,55.8590698242187500,55,101,100,77,81,15536,0,0,0,0,2147121115,2147771209,2147572059,2147567771,51,3,13,2717
1368163294,5812,987.4699707031250000,36.9627304077148440,572.0197753906250000,4.1127781867980960,56.1004295349121100,55,98,99,77,80,15535,0,0,0,0,2147122596,2147769682,2147572461,2147569408,565,2,13,2613
1368166894,5811,987.3300170898438000,35.5248985290527340,571.7098999023438000,4.1224122047424320,56.3188896179199200,55,97,100,79,81,15535,0,0,0,0,2147120868,2147769910,2147572854,2147565101,30,2,13,38961
1368170494,5811,994.3400268554688000,39.5030708312988300,570.6514282226562000,4.1553168296813965,55.6990089416503900,55,96,100,78,82,15534,0,0,0,0,2147122121,2147769526,2147574930,2147567963,280,2,13,29890
1368174094,5810,981.7600097656250000,37.4801788330078100,571.7770996093750000,4.1203231811523440,56.0122413635253900,54,97,99,77,82,15532,0,0,0,0,2147121508,2147770953,2147574235,2147564352,256,2,13,43727
1368177694,5808,980.3900146484375000,38.3144912719726560,572.1849975585938000,4.1076412200927730,55.8925018310546900,55,97,99,78,81,15533,0,0,0,0,2147124352,2147772288,2147571776,2147566089,318,2,13,60961
1368181294,5809,993.4899902343750000,40.5161514282226560,571.6594238281250000,4.1239829063415530,55.5549201965332000,55,98,100,78,81,15530,0,0,0,0,2147123282,2147770066,2147577819,2147565796,53,2,13,10580
1368184894,5812,994.1099853515625000,38.2419700622558600,570.4058837890625000,4.1629471778869630,55.8811607360839840,55,98,99,78,81,15533,0,0,0,0,2147119277,2147768539,2147570624,2147567798,26,2,13,40892
1368188494,5809,995.1400146484375000,40.0195312500000000,571.0302124023438000,4.1435427665710450,55.6204910278320300,53,98,99,78,81,15532,0,0,0,0,2147119350,2147770358,2147571894,2147569261,168,2,13,14054
1368192094,5811,990.3800048828125000,38.6770591735839840,571.3717041015625000,4.1329269409179690,55.8259010314941400,54,96,101,78,81,15531,0,0,0,0,2147121956,2147771300,2147570715,2147571264,3463,2,13,36385
1368195694,5812,986.7399902343750000,38.0339889526367200,571.6646118164062000,4.1238207817077640,55.9304008483886700,55,98,98,77,82,15534,0,0,0,0,2147123693,2147765174,2147571117,2147564342,313,2,13,28104
1368199294,5811,986.5000000000000000,39.1524505615234400,572.3218994140625000,4.1033840179443360,55.7702903747558600,55,101,99,78,81,15526,0,0,0,0,2147120731,2147768109,2147574162,2147566025,431,2,13,29633
1368202894,5809,988.6900024414062000,40.9867782592773440,572.6262817382812000,4.0939202308654785,55.4984703063964840,55,101,100,78,80,15532,0,0,0,0,2147123693,2147766628,2147569600,2147567140,3331,3,13,24798
1368206494,5810,986.6799926757812000,40.0723495483398440,572.3964843750000000,4.1010651588439940,55.6305618286132800,55,97,99,78,82,15530,0,0,0,0,2147120338,2147766720,2147571200,2147563300,453,2,13,12379
1368210094,5810,991.0700073242188000,40.6360511779785160,571.5748901367188000,4.1266098022460940,55.5363883972168000,55,96,100,78,83,15530,0,0,0,0,2147120301,2147769444,2147566866,2147566116,3393,3,13,27373
1368213694,5809,992.5200195312500000,39.2086486816406250,571.5059204101562000,4.1287560462951660,55.7527809143066400,55,96,100,77,81,15522,0,0,0,0,2147120905,2147769874,2147568182,2147565796,3382,2,13,19308
1368217294,5811,994.5000000000000000,37.8239784240722660,571.2393798828125000,4.1370391845703125,55.9552192687988300,55,97,99,78,81,15521,0,0,0,0,2147119460,2147767131,2147575753,2147566299,149,3,13,16576
1368217555,5809,994.6900024414062000,38.0713806152343750,571.1765747070312000,4.1389918327331540,55.9163017272949200,55,97,99,78,82,15520,0,0,0,0,2147123840,2147772580,2147569874,2147568466,47,2,13,7249
